Time,TemperatureF,DewpointF,PressureIn,WindDirection,WindDirectionDegrees,WindSpeedMPH,WindSpeedGustMPH,Humidity,HourlyPrecipIn,Conditions,Clouds,dailyrainin,SoftwareType,DateUTC
2013-04-26 00:09:00,56.0,49.2,29.72,ESE,112,0.0,0.0,78,0.00,,---,0.00,VWS V13.01,2013-04-26 07:09:00,
2013-04-26 00:18:00,56.0,49.2,29.72,ESE,112,0.0,0.0,78,0.00,,---,0.00,VWS V13.01,2013-04-26 07:18:00,
2013-04-26 00:23:00,56.0,49.2,29.72,ESE,112,0.0,0.0,78,0.00,,---,0.00,VWS V13.01,2013-04-26 07:23:00,
2013-04-26 00:44:00,56.0,49.2,29.72,ESE,112,0.0,0.0,78,0.00,,---,0.00,VWS V13.01,2013-04-26 07:44:00,
2013-04-26 00:49:00,56.0,49.2,29.72,ESE,112,0.0,0.0,78,0.00,,---,0.00,VWS V13.01,2013-04-26 07:49:00,
2013-04-26 00:59:00,56.0,49.2,29.72,ESE,112,0.0,0.0,78,0.00,,---,0.00,VWS V13.01,2013-04-26 07:59:00,
2013-04-26 01:04:00,56.0,49.2,29.72,ESE,112,0.0,0.0,78,0.00,,---,0.00,VWS V13.01,2013-04-26 08:04:00,
2013-04-26 01:11:00,56.0,49.2,29.72,ESE,112,0.0,0.0,78,0.00,,---,0.00,VWS V13.01,2013-04-26 08:11:00,
2013-04-26 01:16:00,56.0,49.2,29.72,ESE,112,0.0,0.0,78,0.00,,---,0.00,VWS V13.01,2013-04-26 08:16:00,
2013-04-26 01:25:00,56.0,49.2,29.72,ESE,112,0.0,0.0,78,0.00,,---,0.00,VWS V13.01,2013-04-26 08:25:00,
2013-04-26 01:35:00,56.0,49.2,29.72,ESE,112,0.0,0.0,78,0.00,,---,0.00,VWS V13.01,2013-04-26 08:35:00,
2013-04-26 01:40:00,56.0,49.2,29.72,ESE,112,0.0,0.0,78,0.00,,---,0.00,VWS V13.01,2013-04-26 08:40:00,
2013-04-26 01:48:00,56.0,49.2,29.72,ESE,112,0.0,0.0,78,0.00,,---,0.00,VWS V13.01,2013-04-26 08:48:00,
2013-04-26 02:04:00,56.0,49.2,29.72,ESE,112,0.0,0.0,78,0.00,,---,0.00,VWS V13.01,2013-04-26 09:04:00,
2013-04-26 02:11:00,56.0,49.2,29.72,ESE,112,0.0,0.0,78,0.00,,---,0.00,VWS V13.01,2013-04-26 09:11:00,
2013-04-26 02:35:00,56.0,49.2,29.72,ESE,112,0.0,0.0,78,0.00,,---,0.00,VWS V13.01,2013-04-26 09:35:00,
2013-04-26 02:42:00,56.0,49.2,29.72,ESE,112,0.0,0.0,78,0.00,,---,0.00,VWS V13.01,2013-04-26 09:42:00,
2013-04-26 02:48:00,56.0,49.2,29.72,ESE,112,0.0,0.0,78,0.00,,---,0.00,VWS V13.01,2013-04-26 09:48:00,
2013-04-26 03:02:00,56.0,49.2,29.72,ESE,112,0.0,0.0,78,0.00,,---,0.00,VWS V13.01,2013-04-26 10:02:00,
2013-04-26 03:12:00,56.0,49.2,29.72,ESE,112,0.0,0.0,78,0.00,,---,0.00,VWS V13.01,2013-04-26 10:12:00,
2013-04-26 03:26:00,56.0,49.2,29.72,ESE,112,0.0,0.0,78,0.00,,---,0.00,VWS V13.01,2013-04-26 10:26:00,
2013-04-26 03:35:00,56.0,49.2,29.72,ESE,112,0.0,0.0,78,0.00,,---,0.00,VWS V13.01,2013-04-26 10:35:00,
2013-04-26 03:44:00,56.0,49.2,29.72,ESE,112,0.0,0.0,78,0.00,,---,0.00,VWS V13.01,2013-04-26 10:44:00,
2013-04-26 03:50:00,56.0,49.2,29.72,ESE,112,0.0,0.0,78,0.00,,---,0.00,VWS V13.01,2013-04-26 10:50:00,
2013-04-26 04:04:00,56.0,49.2,29.72,ESE,112,0.0,0.0,78,0.00,,---,0.00,VWS V13.01,2013-04-26 11:04:00,
2013-04-26 04:12:00,47.0,39.5,29.81,WSW,247,0.0,0.0,75,0.00,,---,0.00,VWS V13.01,2013-04-26 11:12:00,
2013-04-26 04:17:00,46.0,38.5,29.81,WSW,247,0.0,0.0,75,0.00,,---,0.00,VWS V13.01,2013-04-26 11:17:00,
2013-04-26 04:22:00,47.0,39.5,29.81,South,180,0.0,0.0,75,0.00,,---,0.00,VWS V13.01,2013-04-26 11:22:00,
2013-04-26 04:27:00,46.0,38.5,29.81,South,180,0.0,0.0,75,0.00,,---,0.00,VWS V13.01,2013-04-26 11:27:00,
2013-04-26 04:32:00,46.0,38.5,29.80,South,180,0.0,0.0,75,0.00,,---,0.00,VWS V13.01,2013-04-26 11:32:00,
2013-04-26 04:37:00,46.0,38.5,29.80,South,180,0.0,0.0,75,0.00,,---,0.00,VWS V13.01,2013-04-26 11:37:00,
2013-04-26 04:42:00,46.0,38.5,29.80,South,180,0.0,0.0,75,0.00,,---,0.00,VWS V13.01,2013-04-26 11:42:00,
2013-04-26 04:47:00,46.0,38.5,29.80,South,180,0.0,0.0,75,0.00,,---,0.00,VWS V13.01,2013-04-26 11:47:00,
2013-04-26 04:52:00,46.0,38.5,29.80,South,180,0.0,0.0,75,0.00,,---,0.00,VWS V13.01,2013-04-26 11:52:00,
2013-04-26 04:57:00,46.0,38.5,29.80,South,180,0.0,0.0,75,0.00,,---,0.00,VWS V13.01,2013-04-26 11:57:00,
2013-04-26 05:02:00,46.0,38.5,29.81,South,180,0.0,0.0,75,0.00,,---,0.00,VWS V13.01,2013-04-26 12:02:00,
2013-04-26 05:07:00,46.0,38.2,29.81,South,180,0.0,0.0,74,0.00,,---,0.00,VWS V13.01,2013-04-26 12:07:00,
2013-04-26 05:12:00,46.0,38.5,29.81,South,180,0.0,0.0,75,0.00,,---,0.00,VWS V13.01,2013-04-26 12:12:00,
2013-04-26 05:17:00,46.0,38.2,29.81,South,180,0.0,0.0,74,0.00,,---,0.00,VWS V13.01,2013-04-26 12:17:00,
2013-04-26 05:22:00,46.0,38.5,29.81,South,180,0.0,0.0,75,0.00,,---,0.00,VWS V13.01,2013-04-26 12:22:00,
2013-04-26 05:27:00,45.0,37.2,29.81,South,180,0.0,0.0,74,0.00,,---,0.00,VWS V13.01,2013-04-26 12:27:00,
2013-04-26 05:32:00,46.0,38.5,29.82,South,180,0.0,0.0,75,0.00,,---,0.00,VWS V13.01,2013-04-26 12:32:00,
2013-04-26 05:37:00,45.0,37.2,29.82,South,180,0.0,0.0,74,0.00,,---,0.00,VWS V13.01,2013-04-26 12:37:00,
2013-04-26 05:42:00,46.0,38.5,29.82,South,180,0.0,0.0,75,0.00,,---,0.00,VWS V13.01,2013-04-26 12:42:00,
2013-04-26 05:47:00,45.0,37.2,29.82,WSW,247,0.0,0.0,74,0.00,,---,0.00,VWS V13.01,2013-04-26 12:47:00,
2013-04-26 05:52:00,46.0,38.5,29.81,WSW,247,0.0,0.0,75,0.00,,---,0.00,VWS V13.01,2013-04-26 12:52:00,
2013-04-26 05:57:00,45.0,37.2,29.81,WSW,247,0.0,0.0,74,0.00,,---,0.00,VWS V13.01,2013-04-26 12:57:00,
2013-04-26 06:02:00,45.0,37.6,29.83,WSW,247,0.0,0.0,75,0.00,,---,0.00,VWS V13.01,2013-04-26 13:02:00,
2013-04-26 06:07:00,45.0,37.2,29.83,WSW,247,0.0,0.0,74,0.00,,---,0.00,VWS V13.01,2013-04-26 13:07:00,
2013-04-26 06:12:00,45.0,37.6,29.83,WSW,247,0.0,0.0,75,0.00,,---,0.00,VWS V13.01,2013-04-26 13:12:00,
2013-04-26 06:17:00,45.0,37.2,29.83,WSW,247,0.0,0.0,74,0.00,,---,0.00,VWS V13.01,2013-04-26 13:17:00,
2013-04-26 06:22:00,45.0,37.6,29.83,WSW,247,0.0,0.0,75,0.00,,---,0.00,VWS V13.01,2013-04-26 13:22:00,
2013-04-26 06:27:00,45.0,37.2,29.83,WSW,247,0.0,0.0,74,0.00,,---,0.00,VWS V13.01,2013-04-26 13:27:00,
2013-04-26 06:32:00,46.0,38.5,29.83,WSW,247,0.0,0.0,75,0.00,,---,0.00,VWS V13.01,2013-04-26 13:32:00,
2013-04-26 06:37:00,45.0,37.2,29.83,WSW,247,0.0,0.0,74,0.00,,---,0.00,VWS V13.01,2013-04-26 13:37:00,
2013-04-26 06:42:00,46.0,38.5,29.82,WSW,247,0.0,0.0,75,0.00,,---,0.00,VWS V13.01,2013-04-26 13:42:00,
2013-04-26 06:47:00,46.0,38.2,29.82,SW,225,0.0,0.0,74,0.00,,---,0.00,VWS V13.01,2013-04-26 13:47:00,
2013-04-26 06:52:00,46.0,38.5,29.83,ENE,67,0.0,0.0,75,0.00,,---,0.00,VWS V13.01,2013-04-26 13:52:00,
2013-04-26 06:57:00,46.0,38.2,29.83,NNW,337,0.0,0.0,74,0.00,,---,0.00,VWS V13.01,2013-04-26 13:57:00,
2013-04-26 07:02:00,47.0,39.5,29.83,NNW,337,0.0,0.0,75,0.00,,---,0.00,VWS V13.01,2013-04-26 14:02:00,
2013-04-26 07:07:00,47.0,39.2,29.83,WNW,292,0.0,0.0,74,0.00,,---,0.00,VWS V13.01,2013-04-26 14:07:00,
2013-04-26 07:12:00,48.0,40.8,29.84,WNW,292,0.0,0.0,76,0.00,,---,0.00,VWS V13.01,2013-04-26 14:12:00,
2013-04-26 07:17:00,48.0,40.5,29.84,WNW,292,0.0,0.0,75,0.00,,---,0.00,VWS V13.01,2013-04-26 14:17:00,
2013-04-26 07:22:00,48.0,40.5,29.84,WNW,292,0.0,0.0,75,0.00,,---,0.00,VWS V13.01,2013-04-26 14:22:00,
2013-04-26 07:25:00,48.0,40.5,29.84,WNW,292,0.0,0.0,75,0.00,,---,0.00,VWS V13.01,2013-04-26 14:25:00,
2013-04-26 07:27:00,48.0,40.5,29.84,WNW,292,0.0,0.0,75,0.00,,---,0.00,VWS V13.01,2013-04-26 14:27:00,
2013-04-26 07:32:00,48.0,40.5,29.84,WNW,292,0.0,0.0,75,0.00,,---,0.00,VWS V13.01,2013-04-26 14:32:00,
2013-04-26 07:39:00,48.0,40.5,29.84,WNW,292,0.0,0.0,75,0.00,,---,0.00,VWS V13.01,2013-04-26 14:39:00,
2013-04-26 07:47:00,48.0,40.5,29.84,WNW,292,0.0,0.0,75,0.00,,---,0.00,VWS V13.01,2013-04-26 14:47:00,
2013-04-26 07:52:00,48.0,40.5,29.84,WNW,292,0.0,0.0,75,0.00,,---,0.00,VWS V13.01,2013-04-26 14:52:00,
2013-04-26 08:00:00,48.0,40.5,29.84,WNW,292,0.0,0.0,75,0.00,,---,0.00,VWS V13.01,2013-04-26 15:00:00,
2013-04-26 08:09:00,48.0,40.5,29.84,WNW,292,0.0,0.0,75,0.00,,---,0.00,VWS V13.01,2013-04-26 15:09:00,
2013-04-26 08:18:00,48.0,40.5,29.84,WNW,292,0.0,0.0,75,0.00,,---,0.00,VWS V13.01,2013-04-26 15:18:00,
2013-04-26 08:23:00,48.0,40.5,29.84,WNW,292,0.0,0.0,75,0.00,,---,0.00,VWS V13.01,2013-04-26 15:23:00,
2013-04-26 08:28:00,48.0,40.5,29.84,WNW,292,0.0,0.0,75,0.00,,---,0.00,VWS V13.01,2013-04-26 15:28:00,
2013-04-26 08:37:00,48.0,40.5,29.84,WNW,292,0.0,0.0,75,0.00,,---,0.00,VWS V13.01,2013-04-26 15:37:00,
2013-04-26 08:43:00,48.0,40.5,29.84,WNW,292,0.0,0.0,75,0.00,,---,0.00,VWS V13.01,2013-04-26 15:43:00,
2013-04-26 08:50:00,48.0,40.5,29.84,WNW,292,0.0,0.0,75,0.00,,---,0.00,VWS V13.01,2013-04-26 15:50:00,
2013-04-26 08:57:00,48.0,40.5,29.84,WNW,292,0.0,0.0,75,0.00,,---,0.00,VWS V13.01,2013-04-26 15:57:00,
2013-04-26 09:07:00,48.0,40.5,29.84,WNW,292,0.0,0.0,75,0.00,,---,0.00,VWS V13.01,2013-04-26 16:07:00,
2013-04-26 09:12:00,58.0,50.8,29.86,SSE,157,0.0,0.0,77,0.00,,---,0.00,VWS V13.01,2013-04-26 16:12:00,
2013-04-26 09:17:00,58.0,50.8,29.86,SE,135,0.0,0.0,77,0.00,,---,0.00,VWS V13.01,2013-04-26 16:17:00,
2013-04-26 09:18:00,58.0,50.8,29.86,SE,135,0.0,0.0,77,0.00,,---,0.00,VWS V13.01,2013-04-26 16:18:00,
2013-04-26 09:22:00,58.0,50.8,29.86,SE,135,0.0,0.0,77,0.00,,---,0.00,VWS V13.01,2013-04-26 16:22:00,
2013-04-26 09:27:00,58.0,50.8,29.86,SE,135,0.0,0.0,77,0.00,,---,0.00,VWS V13.01,2013-04-26 16:27:00,
2013-04-26 09:39:00,58.0,50.8,29.86,SE,135,0.0,0.0,77,0.00,,---,0.00,VWS V13.01,2013-04-26 16:39:00,
2013-04-26 09:44:00,62.0,55.1,29.85,East,90,0.0,0.0,78,0.00,,---,0.00,VWS V13.01,2013-04-26 16:44:00,
2013-04-26 09:49:00,63.0,56.0,29.85,SSW,202,0.0,0.0,78,0.00,,---,0.00,VWS V13.01,2013-04-26 16:49:00,
2013-04-26 09:54:00,63.0,56.0,29.85,ESE,112,0.0,0.0,78,0.00,,---,0.00,VWS V13.01,2013-04-26 16:54:00,
2013-04-26 09:59:00,63.0,56.0,29.85,ESE,112,0.0,0.0,78,0.00,,---,0.00,VWS V13.01,2013-04-26 16:59:00,
2013-04-26 10:04:00,63.0,56.4,29.85,ESE,112,1.0,3.0,79,0.00,,---,0.00,VWS V13.01,2013-04-26 17:04:00,
2013-04-26 10:09:00,64.0,57.4,29.85,SE,135,0.0,0.0,79,0.00,,---,0.00,VWS V13.01,2013-04-26 17:09:00,
2013-04-26 10:14:00,65.0,58.3,29.84,SE,135,0.0,0.0,79,0.00,,---,0.00,VWS V13.01,2013-04-26 17:14:00,
2013-04-26 10:19:00,65.0,58.3,29.84,East,90,0.0,0.0,79,0.00,,---,0.00,VWS V13.01,2013-04-26 17:19:00,
2013-04-26 10:24:00,66.0,59.3,29.83,NW,315,0.0,0.0,79,0.00,,---,0.00,VWS V13.01,2013-04-26 17:24:00,
2013-04-26 10:29:00,67.0,60.3,29.83,WSW,247,0.0,0.0,79,0.00,,---,0.00,VWS V13.01,2013-04-26 17:29:00,
2013-04-26 10:34:00,66.0,59.3,29.83,ESE,112,0.0,0.0,79,0.00,,---,0.00,VWS V13.01,2013-04-26 17:34:00,
2013-04-26 10:39:00,66.0,59.3,29.83,WNW,292,0.0,0.0,79,0.00,,---,0.00,VWS V13.01,2013-04-26 17:39:00,
2013-04-26 10:44:00,67.0,60.3,29.82,SE,135,0.0,0.0,79,0.00,,---,0.00,VWS V13.01,2013-04-26 17:44:00,
2013-04-26 10:49:00,67.0,60.3,29.82,SSE,157,0.0,0.0,79,0.00,,---,0.00,VWS V13.01,2013-04-26 17:49:00,
2013-04-26 10:54:00,67.0,60.3,29.82,West,270,0.0,0.0,79,0.00,,---,0.00,VWS V13.01,2013-04-26 17:54:00,
2013-04-26 10:59:00,68.0,61.6,29.82,SW,225,0.0,0.0,80,0.00,,---,0.00,VWS V13.01,2013-04-26 17:59:00,
2013-04-26 11:04:00,69.0,62.6,29.81,East,90,0.0,0.0,80,0.00,,---,0.00,VWS V13.01,2013-04-26 18:04:00,
2013-04-26 11:09:00,70.0,63.5,29.81,SW,225,0.0,0.0,80,0.00,,---,0.00,VWS V13.01,2013-04-26 18:09:00,
2013-04-26 11:14:00,71.0,64.5,29.81,SW,225,0.0,0.0,80,0.00,,---,0.00,VWS V13.01,2013-04-26 18:14:00,
2013-04-26 11:19:00,71.0,64.5,29.81,SW,225,0.0,0.0,80,0.00,,---,0.00,VWS V13.01,2013-04-26 18:19:00,
2013-04-26 11:24:00,71.0,64.5,29.81,NW,315,0.0,0.0,80,0.00,,---,0.00,VWS V13.01,2013-04-26 18:24:00,
2013-04-26 11:25:00,71.0,64.5,29.81,NW,315,0.0,0.0,80,0.00,,---,0.00,VWS V13.01,2013-04-26 18:25:00,
2013-04-26 11:29:00,71.0,64.5,29.81,NW,315,0.0,0.0,80,0.00,,---,0.00,VWS V13.01,2013-04-26 18:29:00,
2013-04-26 11:34:00,71.0,64.5,29.81,NW,315,0.0,0.0,80,0.00,,---,0.00,VWS V13.01,2013-04-26 18:34:00,
2013-04-26 11:39:00,71.0,64.5,29.81,NW,315,0.0,0.0,80,0.00,,---,0.00,VWS V13.01,2013-04-26 18:39:00,
2013-04-26 11:50:00,71.0,64.5,29.81,NW,315,0.0,0.0,80,0.00,,---,0.00,VWS V13.01,2013-04-26 18:50:00,
2013-04-26 12:04:00,71.0,64.5,29.81,NW,315,0.0,0.0,80,0.00,,---,0.00,VWS V13.01,2013-04-26 19:04:00,
2013-04-26 12:14:00,71.0,64.5,29.81,NW,315,0.0,0.0,80,0.00,,---,0.00,VWS V13.01,2013-04-26 19:14:00,
2013-04-26 12:21:00,71.0,64.5,29.81,NW,315,0.0,0.0,80,0.00,,---,0.00,VWS V13.01,2013-04-26 19:21:00,
2013-04-26 12:26:00,71.0,64.5,29.81,NW,315,0.0,0.0,80,0.00,,---,0.00,VWS V13.01,2013-04-26 19:26:00,
2013-04-26 12:31:00,71.0,64.5,29.81,NW,315,0.0,0.0,80,0.00,,---,0.00,VWS V13.01,2013-04-26 19:31:00,
2013-04-26 12:36:00,74.0,67.4,29.78,South,180,1.0,1.0,80,0.00,,---,0.00,VWS V13.01,2013-04-26 19:36:00,
2013-04-26 12:41:00,74.0,67.4,29.78,SE,135,0.0,0.0,80,0.00,,---,0.00,VWS V13.01,2013-04-26 19:41:00,
2013-04-26 12:46:00,74.0,67.4,29.78,SE,135,0.0,0.0,80,0.00,,---,0.00,VWS V13.01,2013-04-26 19:46:00,
2013-04-26 12:51:00,74.0,67.4,29.78,SE,135,0.0,0.0,80,0.00,,---,0.00,VWS V13.01,2013-04-26 19:51:00,
2013-04-26 12:56:00,74.0,67.4,29.78,SE,135,0.0,0.0,80,0.00,,---,0.00,VWS V13.01,2013-04-26 19:56:00,
2013-04-26 13:02:00,76.0,69.8,29.77,South,180,0.0,0.0,81,0.00,,---,0.00,VWS V13.01,2013-04-26 20:02:00,
2013-04-26 13:06:00,76.0,69.8,29.77,South,180,0.0,0.0,81,0.00,,---,0.00,VWS V13.01,2013-04-26 20:06:00,
2013-04-26 13:07:00,76.0,69.8,29.77,South,180,0.0,0.0,81,0.00,,---,0.00,VWS V13.01,2013-04-26 20:07:00,
2013-04-26 13:12:00,76.0,69.8,29.77,South,180,0.0,0.0,81,0.00,,---,0.00,VWS V13.01,2013-04-26 20:12:00,
2013-04-26 13:17:00,76.0,69.8,29.77,South,180,0.0,0.0,81,0.00,,---,0.00,VWS V13.01,2013-04-26 20:17:00,
2013-04-26 13:37:00,79.0,72.7,29.76,SSW,202,0.0,0.0,81,0.00,,---,0.00,VWS V13.01,2013-04-26 20:37:00,
2013-04-26 13:41:00,79.0,72.7,29.76,South,180,0.0,0.0,81,0.00,,---,0.00,VWS V13.01,2013-04-26 20:41:00,
2013-04-26 13:42:00,79.0,72.7,29.76,South,180,0.0,0.0,81,0.00,,---,0.00,VWS V13.01,2013-04-26 20:42:00,
2013-04-26 13:47:00,79.0,72.7,29.76,South,180,0.0,0.0,81,0.00,,---,0.00,VWS V13.01,2013-04-26 20:47:00,
2013-04-26 14:12:00,79.0,72.7,29.76,South,180,0.0,0.0,81,0.00,,---,0.00,VWS V13.01,2013-04-26 21:12:00,
2013-04-26 14:17:00,80.0,73.7,29.74,West,270,0.0,0.0,81,0.00,,---,0.00,VWS V13.01,2013-04-26 21:17:00,
2013-04-26 14:22:00,80.0,73.7,29.74,West,270,0.0,0.0,81,0.00,,---,0.00,VWS V13.01,2013-04-26 21:22:00,
2013-04-26 14:27:00,81.0,74.6,29.73,NW,315,0.0,0.0,81,0.00,,---,0.00,VWS V13.01,2013-04-26 21:27:00,
2013-04-26 14:32:00,81.0,74.6,29.73,NW,315,0.0,0.0,81,0.00,,---,0.00,VWS V13.01,2013-04-26 21:32:00,
2013-04-26 14:38:00,81.0,74.6,29.73,NW,315,0.0,0.0,81,0.00,,---,0.00,VWS V13.01,2013-04-26 21:38:00,
2013-04-26 14:49:00,81.0,74.6,29.73,NW,315,0.0,0.0,81,0.00,,---,0.00,VWS V13.01,2013-04-26 21:49:00,
2013-04-26 14:55:00,81.0,74.6,29.73,NW,315,0.0,0.0,81,0.00,,---,0.00,VWS V13.01,2013-04-26 21:55:00,
2013-04-26 15:01:00,81.0,74.6,29.73,NW,315,0.0,0.0,81,0.00,,---,0.00,VWS V13.01,2013-04-26 22:01:00,
2013-04-26 15:07:00,81.0,74.6,29.73,NW,315,0.0,0.0,81,0.00,,---,0.00,VWS V13.01,2013-04-26 22:07:00,
2013-04-26 15:12:00,82.0,75.6,29.72,SW,225,0.0,0.0,81,0.00,,---,0.00,VWS V13.01,2013-04-26 22:12:00,
2013-04-26 15:15:00,82.0,75.6,29.72,SW,225,0.0,0.0,81,0.00,,---,0.00,VWS V13.01,2013-04-26 22:15:00,
2013-04-26 15:17:00,82.0,75.6,29.72,SW,225,0.0,0.0,81,0.00,,---,0.00,VWS V13.01,2013-04-26 22:17:00,
2013-04-26 15:22:00,82.0,75.6,29.72,SW,225,0.0,0.0,81,0.00,,---,0.00,VWS V13.01,2013-04-26 22:22:00,
2013-04-26 15:30:00,82.0,75.6,29.72,SW,225,0.0,0.0,81,0.00,,---,0.00,VWS V13.01,2013-04-26 22:30:00,
2013-04-26 15:38:00,82.0,75.6,29.72,SW,225,0.0,0.0,81,0.00,,---,0.00,VWS V13.01,2013-04-26 22:38:00,
2013-04-26 15:51:00,82.0,75.6,29.72,SW,225,0.0,0.0,81,0.00,,---,0.00,VWS V13.01,2013-04-26 22:51:00,
2013-04-26 15:58:00,82.0,75.6,29.72,SW,225,0.0,0.0,81,0.00,,---,0.00,VWS V13.01,2013-04-26 22:58:00,
2013-04-26 16:03:00,82.0,75.6,29.72,SW,225,0.0,0.0,81,0.00,,---,0.00,VWS V13.01,2013-04-26 23:03:00,
2013-04-26 16:11:00,82.0,75.6,29.72,SW,225,0.0,0.0,81,0.00,,---,0.00,VWS V13.01,2013-04-26 23:11:00,
2013-04-26 16:16:00,82.0,75.6,29.72,SW,225,0.0,0.0,81,0.00,,---,0.00,VWS V13.01,2013-04-26 23:16:00,
2013-04-26 16:21:00,82.0,75.6,29.72,SW,225,0.0,0.0,81,0.00,,---,0.00,VWS V13.01,2013-04-26 23:21:00,
2013-04-26 16:30:00,82.0,75.6,29.72,SW,225,0.0,0.0,81,0.00,,---,0.00,VWS V13.01,2013-04-26 23:30:00,
2013-04-26 16:37:00,82.0,75.6,29.72,SW,225,0.0,0.0,81,0.00,,---,0.00,VWS V13.01,2013-04-26 23:37:00,
2013-04-26 16:49:00,82.0,75.6,29.72,SW,225,0.0,0.0,81,0.00,,---,0.00,VWS V13.01,2013-04-26 23:49:00,
2013-04-26 17:01:00,84.0,77.9,29.68,SE,135,0.0,0.0,82,0.00,,---,0.00,VWS V13.01,2013-04-27 00:01:00,
2013-04-26 17:05:00,84.0,77.9,29.68,SE,135,0.0,0.0,82,0.00,,---,0.00,VWS V13.01,2013-04-27 00:05:00,
2013-04-26 17:10:00,84.0,77.9,29.68,SE,135,0.0,0.0,82,0.00,,---,0.00,VWS V13.01,2013-04-27 00:10:00,
2013-04-26 17:19:00,85.0,78.9,29.69,SE,135,0.0,0.0,82,0.00,,---,0.00,VWS V13.01,2013-04-27 00:19:00,
2013-04-26 17:23:00,86.0,79.9,29.69,South,180,0.0,0.0,82,0.00,,---,0.00,VWS V13.01,2013-04-27 00:23:00,
2013-04-26 17:24:00,86.0,79.9,29.69,South,180,0.0,0.0,82,0.00,,---,0.00,VWS V13.01,2013-04-27 00:24:00,
2013-04-26 17:29:00,86.0,79.9,29.69,South,180,0.0,0.0,82,0.00,,---,0.00,VWS V13.01,2013-04-27 00:29:00,
2013-04-26 17:47:00,86.0,79.9,29.67,WSW,247,0.0,0.0,82,0.00,,---,0.00,VWS V13.01,2013-04-27 00:47:00,
2013-04-26 18:06:00,87.0,80.8,29.67,West,270,0.0,0.0,82,0.00,,---,0.00,VWS V13.01,2013-04-27 01:06:00,
2013-04-26 19:08:00,87.0,80.8,29.67,West,270,0.0,0.0,82,0.00,,---,0.00,VWS V13.01,2013-04-27 02:08:00,
2013-04-26 19:16:00,77.0,70.7,29.70,ESE,112,0.0,0.0,81,0.00,,---,0.00,VWS V13.01,2013-04-27 02:16:00,
2013-04-26 19:19:00,77.0,70.7,29.70,ESE,112,0.0,0.0,81,0.00,,---,0.00,VWS V13.01,2013-04-27 02:19:00,
2013-04-26 19:21:00,77.0,70.7,29.70,ESE,112,0.0,0.0,81,0.00,,---,0.00,VWS V13.01,2013-04-27 02:21:00,
2013-04-26 19:26:00,77.0,70.7,29.70,ESE,112,0.0,0.0,81,0.00,,---,0.00,VWS V13.01,2013-04-27 02:26:00,
2013-04-26 19:32:00,77.0,70.7,29.70,ESE,112,0.0,0.0,81,0.00,,---,0.00,VWS V13.01,2013-04-27 02:32:00,
2013-04-26 19:43:00,77.0,70.7,29.70,ESE,112,0.0,0.0,81,0.00,,---,0.00,VWS V13.01,2013-04-27 02:43:00,
2013-04-26 19:49:00,77.0,70.7,29.70,ESE,112,0.0,0.0,81,0.00,,---,0.00,VWS V13.01,2013-04-27 02:49:00,
2013-04-26 20:01:00,77.0,70.7,29.70,ESE,112,0.0,0.0,81,0.00,,---,0.00,VWS V13.01,2013-04-27 03:01:00,
2013-04-26 20:12:00,77.0,70.7,29.70,ESE,112,0.0,0.0,81,0.00,,---,0.00,VWS V13.01,2013-04-27 03:12:00,
2013-04-26 20:17:00,77.0,70.7,29.70,ESE,112,0.0,0.0,81,0.00,,---,0.00,VWS V13.01,2013-04-27 03:17:00,
2013-04-26 20:22:00,77.0,70.7,29.70,ESE,112,0.0,0.0,81,0.00,,---,0.00,VWS V13.01,2013-04-27 03:22:00,
2013-04-26 20:33:00,77.0,70.7,29.70,ESE,112,0.0,0.0,81,0.00,,---,0.00,VWS V13.01,2013-04-27 03:33:00,
2013-04-26 21:11:00,77.0,70.7,29.70,ESE,112,0.0,0.0,81,0.00,,---,0.00,VWS V13.01,2013-04-27 04:11:00,
2013-04-26 21:23:00,77.0,70.7,29.70,ESE,112,0.0,0.0,81,0.00,,---,0.00,VWS V13.01,2013-04-27 04:23:00,
2013-04-26 21:28:00,63.0,56.4,29.75,ESE,112,0.0,0.0,79,0.00,,---,0.00,VWS V13.01,2013-04-27 04:28:00,
2013-04-26 21:33:00,63.0,56.4,29.77,ESE,112,0.0,0.0,79,0.00,,---,0.00,VWS V13.01,2013-04-27 04:33:00,
2013-04-26 21:38:00,63.0,56.4,29.77,ESE,112,0.0,0.0,79,0.00,,---,0.00,VWS V13.01,2013-04-27 04:38:00,
2013-04-26 21:43:00,63.0,56.4,29.79,ESE,112,0.0,0.0,79,0.00,,---,0.00,VWS V13.01,2013-04-27 04:43:00,
2013-04-26 21:48:00,63.0,56.4,29.79,ESE,112,0.0,0.0,79,0.00,,---,0.00,VWS V13.01,2013-04-27 04:48:00,
2013-04-26 21:53:00,63.0,56.4,29.78,ESE,112,0.0,0.0,79,0.00,,---,0.00,VWS V13.01,2013-04-27 04:53:00,
2013-04-26 21:58:00,62.0,55.4,29.78,ESE,112,0.0,0.0,79,0.00,,---,0.00,VWS V13.01,2013-04-27 04:58:00,
2013-04-26 22:03:00,62.0,55.4,29.77,ESE,112,0.0,0.0,79,0.00,,---,0.00,VWS V13.01,2013-04-27 05:03:00,
2013-04-26 22:08:00,61.0,54.5,29.77,ESE,112,0.0,0.0,79,0.00,,---,0.00,VWS V13.01,2013-04-27 05:08:00,
2013-04-26 22:13:00,61.0,54.5,29.77,ESE,112,0.0,0.0,79,0.00,,---,0.00,VWS V13.01,2013-04-27 05:13:00,
2013-04-26 22:18:00,61.0,54.5,29.78,ESE,112,0.0,0.0,79,0.00,,---,0.00,VWS V13.01,2013-04-27 05:18:00,
2013-04-26 22:23:00,61.0,54.5,29.79,ESE,112,0.0,0.0,79,0.00,,---,0.00,VWS V13.01,2013-04-27 05:23:00,
2013-04-26 22:28:00,61.0,54.5,29.79,ESE,112,0.0,0.0,79,0.00,,---,0.00,VWS V13.01,2013-04-27 05:28:00,
2013-04-26 22:33:00,61.0,54.5,29.79,ESE,112,0.0,0.0,79,0.00,,---,0.00,VWS V13.01,2013-04-27 05:33:00,
2013-04-26 22:38:00,61.0,54.5,29.79,ESE,112,0.0,0.0,79,0.00,,---,0.00,VWS V13.01,2013-04-27 05:38:00,
2013-04-26 22:43:00,60.0,53.5,29.79,ESE,112,0.0,0.0,79,0.00,,---,0.00,VWS V13.01,2013-04-27 05:43:00,
2013-04-26 22:48:00,60.0,53.5,29.79,ESE,112,0.0,0.0,79,0.00,,---,0.00,VWS V13.01,2013-04-27 05:48:00,
2013-04-26 22:53:00,61.0,54.5,29.79,ESE,112,0.0,0.0,79,0.00,,---,0.00,VWS V13.01,2013-04-27 05:53:00,
2013-04-26 22:58:00,61.0,54.5,29.79,ESE,112,0.0,0.0,79,0.00,,---,0.00,VWS V13.01,2013-04-27 05:58:00,
2013-04-26 23:03:00,61.0,54.5,29.79,ESE,112,0.0,0.0,79,0.00,,---,0.00,VWS V13.01,2013-04-27 06:03:00,
2013-04-26 23:08:00,61.0,54.5,29.79,SE,135,0.0,0.0,79,0.00,,---,0.00,VWS V13.01,2013-04-27 06:08:00,
2013-04-26 23:13:00,62.0,55.4,29.78,SE,135,0.0,0.0,79,0.00,,---,0.00,VWS V13.01,2013-04-27 06:13:00,
2013-04-26 23:18:00,61.0,54.5,29.78,ESE,112,0.0,0.0,79,0.00,,---,0.00,VWS V13.01,2013-04-27 06:18:00,
2013-04-26 23:23:00,61.0,54.5,29.79,ESE,112,0.0,0.0,79,0.00,,---,0.00,VWS V13.01,2013-04-27 06:23:00,
2013-04-26 23:28:00,61.0,54.5,29.79,ESE,112,0.0,0.0,79,0.00,,---,0.00,VWS V13.01,2013-04-27 06:28:00,
2013-04-26 23:33:00,61.0,54.5,29.79,ESE,112,0.0,0.0,79,0.00,,---,0.00,VWS V13.01,2013-04-27 06:33:00,
2013-04-26 23:38:00,60.0,53.5,29.79,ESE,112,0.0,0.0,79,0.00,,---,0.00,VWS V13.01,2013-04-27 06:38:00,
2013-04-26 23:43:00,60.0,53.5,29.79,ESE,112,0.0,0.0,79,0.00,,---,0.00,VWS V13.01,2013-04-27 06:43:00,
2013-04-26 23:48:00,59.0,52.2,29.79,ESE,112,0.0,0.0,78,0.00,,---,0.00,VWS V13.01,2013-04-27 06:48:00,
2013-04-26 23:53:00,58.0,51.2,29.79,ESE,112,0.0,0.0,78,0.00,,---,0.00,VWS V13.01,2013-04-27 06:53:00,
2013-04-26 23:58:00,58.0,51.2,29.79,ESE,112,0.0,0.0,78,0.00,,---,0.00,VWS V13.01,2013-04-27 06:58:00,